Year,Month,Day,Hour,Minute,Value (Times are PST for temperature in C)
2017,05,24,00,00,7.80
2017,05,24,00,01,7.80
2017,05,24,00,02,7.80
2017,05,24,00,03,7.80
2017,05,24,00,04,7.80
2017,05,24,00,05,7.80
2017,05,24,00,06,7.80
2017,05,24,00,07,7.80
2017,05,24,00,08,7.80
2017,05,24,00,09,7.80
2017,05,24,00,10,7.80
2017,05,24,00,11,7.80
2017,05,24,00,12,7.80
2017,05,24,00,13,7.80
2017,05,24,00,14,7.80
2017,05,24,00,15,7.80
2017,05,24,00,16,7.80
2017,05,24,00,17,7.80
2017,05,24,00,18,7.80
2017,05,24,00,19,7.80
2017,05,24,00,20,7.80
2017,05,24,00,21,7.80
2017,05,24,00,22,7.80
2017,05,24,00,23,7.80
2017,05,24,00,24,7.80
2017,05,24,00,25,7.80
2017,05,24,00,26,7.80
2017,05,24,00,27,7.80
2017,05,24,00,28,7.80
2017,05,24,00,29,7.80
2017,05,24,00,30,7.70
2017,05,24,00,31,7.80
2017,05,24,00,32,7.80
2017,05,24,00,33,7.80
2017,05,24,00,34,7.70
2017,05,24,00,35,7.70
2017,05,24,00,36,7.70
2017,05,24,00,37,7.70
2017,05,24,00,38,7.70
2017,05,24,00,39,7.70
2017,05,24,00,40,7.70
2017,05,24,00,41,7.70
2017,05,24,00,42,7.70
2017,05,24,00,43,7.70
2017,05,24,00,44,7.70
2017,05,24,00,45,7.70
2017,05,24,00,46,7.70
2017,05,24,00,47,7.70
2017,05,24,00,48,7.70
2017,05,24,00,49,7.60
2017,05,24,00,50,7.60
2017,05,24,00,51,7.60
2017,05,24,00,52,7.50
2017,05,24,00,53,7.50
2017,05,24,00,54,7.50
2017,05,24,00,55,7.50
2017,05,24,00,56,7.40
2017,05,24,00,57,7.40
2017,05,24,00,58,7.40
2017,05,24,00,59,7.40
2017,05,24,01,00,7.40
2017,05,24,01,01,7.40
2017,05,24,01,02,7.40
2017,05,24,01,03,7.40
2017,05,24,01,04,7.40
2017,05,24,01,05,7.40
2017,05,24,01,06,7.40
2017,05,24,01,07,7.40
2017,05,24,01,08,7.40
2017,05,24,01,09,7.40
2017,05,24,01,10,7.40
2017,05,24,01,11,7.40
2017,05,24,01,12,7.40
2017,05,24,01,13,7.50
2017,05,24,01,14,7.50
2017,05,24,01,15,7.60
2017,05,24,01,16,7.50
2017,05,24,01,17,7.50
2017,05,24,01,18,7.50
2017,05,24,01,19,7.50
2017,05,24,01,20,7.60
2017,05,24,01,21,7.70
2017,05,24,01,22,7.70
2017,05,24,01,23,7.80
2017,05,24,01,24,7.90
2017,05,24,01,25,7.90
2017,05,24,01,26,7.90
2017,05,24,01,27,8.00
2017,05,24,01,28,8.00
2017,05,24,01,29,8.10
2017,05,24,01,30,8.00
2017,05,24,01,31,8.00
2017,05,24,01,32,8.00
2017,05,24,01,33,7.90
2017,05,24,01,34,7.90
2017,05,24,01,35,7.80
2017,05,24,01,36,7.80
2017,05,24,01,37,7.80
2017,05,24,01,38,7.70
2017,05,24,01,39,7.70
2017,05,24,01,40,7.70
2017,05,24,01,41,7.70
2017,05,24,01,42,7.60
2017,05,24,01,43,7.60
2017,05,24,01,44,7.60
2017,05,24,01,45,7.60
2017,05,24,01,46,7.60
2017,05,24,01,47,7.60
2017,05,24,01,48,7.60
2017,05,24,01,49,7.60
2017,05,24,01,50,7.50
2017,05,24,01,51,7.50
2017,05,24,01,52,7.40
2017,05,24,01,53,7.40
2017,05,24,01,54,7.40
2017,05,24,01,55,7.40
2017,05,24,01,56,7.30
2017,05,24,01,57,7.30
2017,05,24,01,58,7.30
2017,05,24,01,59,7.30
2017,05,24,02,00,7.30
2017,05,24,02,01,7.30
2017,05,24,02,02,7.30
2017,05,24,02,03,7.30
2017,05,24,02,04,7.30
2017,05,24,02,05,7.30
2017,05,24,02,06,7.30
2017,05,24,02,07,7.30
2017,05,24,02,08,7.30
2017,05,24,02,09,7.20
2017,05,24,02,10,7.20
2017,05,24,02,11,7.20
2017,05,24,02,12,7.20
2017,05,24,02,13,7.20
2017,05,24,02,14,7.20
2017,05,24,02,15,7.20
2017,05,24,02,16,7.20
2017,05,24,02,17,7.20
2017,05,24,02,18,7.20
2017,05,24,02,19,7.20
2017,05,24,02,20,7.30
2017,05,24,02,21,7.30
2017,05,24,02,22,7.30
2017,05,24,02,23,7.30
2017,05,24,02,24,7.30
2017,05,24,02,25,7.30
2017,05,24,02,26,7.30
2017,05,24,02,27,7.30
2017,05,24,02,28,7.30
2017,05,24,02,29,7.30
2017,05,24,02,30,7.30
2017,05,24,02,31,7.40
2017,05,24,02,32,7.30
2017,05,24,02,33,7.30
2017,05,24,02,34,7.30
2017,05,24,02,35,7.30
2017,05,24,02,36,7.20
2017,05,24,02,37,7.20
2017,05,24,02,38,7.20
2017,05,24,02,39,7.20
2017,05,24,02,40,7.30
2017,05,24,02,41,7.30
2017,05,24,02,42,7.30
2017,05,24,02,43,7.30
2017,05,24,02,44,7.40
2017,05,24,02,45,7.40
2017,05,24,02,46,7.40
2017,05,24,02,47,7.40
2017,05,24,02,48,7.40
2017,05,24,02,49,7.40
2017,05,24,02,50,7.40
2017,05,24,02,51,7.40
2017,05,24,02,52,7.40
2017,05,24,02,53,7.40
2017,05,24,02,54,7.40
2017,05,24,02,55,7.40
2017,05,24,02,56,7.40
2017,05,24,02,57,7.30
2017,05,24,02,58,7.30
2017,05,24,02,59,7.20
2017,05,24,03,00,7.10
2017,05,24,03,01,7.00
2017,05,24,03,02,7.00
2017,05,24,03,03,6.90
2017,05,24,03,04,6.90
2017,05,24,03,05,6.90
2017,05,24,03,06,6.80
2017,05,24,03,07,6.80
2017,05,24,03,08,6.80
2017,05,24,03,09,6.80
2017,05,24,03,10,6.80
2017,05,24,03,11,6.80
2017,05,24,03,12,6.80
2017,05,24,03,13,6.80
2017,05,24,03,14,6.80
2017,05,24,03,15,6.80
2017,05,24,03,16,6.80
2017,05,24,03,17,6.80
2017,05,24,03,18,6.80
2017,05,24,03,19,6.80
2017,05,24,03,20,6.80
2017,05,24,03,21,6.80
2017,05,24,03,22,6.80
2017,05,24,03,23,6.80
2017,05,24,03,24,6.90
2017,05,24,03,25,6.90
2017,05,24,03,26,6.90
2017,05,24,03,27,6.90
2017,05,24,03,28,6.90
2017,05,24,03,29,6.90
2017,05,24,03,30,6.90
2017,05,24,03,31,6.90
2017,05,24,03,32,6.90
2017,05,24,03,33,6.90
2017,05,24,03,34,6.90
2017,05,24,03,35,6.90
2017,05,24,03,36,6.90
2017,05,24,03,37,6.90
2017,05,24,03,38,6.80
2017,05,24,03,39,6.80
2017,05,24,03,40,6.80
2017,05,24,03,41,6.80
2017,05,24,03,42,6.80
2017,05,24,03,43,6.80
2017,05,24,03,44,6.80
2017,05,24,03,45,6.80
2017,05,24,03,46,6.90
2017,05,24,03,47,6.90
2017,05,24,03,48,6.90
2017,05,24,03,49,7.00
2017,05,24,03,50,7.00
2017,05,24,03,51,7.00
2017,05,24,03,52,6.90
2017,05,24,03,53,6.90
2017,05,24,03,54,6.90
2017,05,24,03,55,6.90
2017,05,24,03,56,6.90
2017,05,24,03,57,7.00
2017,05,24,03,58,7.00
2017,05,24,03,59,7.00
2017,05,24,04,00,7.00
2017,05,24,04,01,7.10
2017,05,24,04,02,7.10
2017,05,24,04,03,7.10
2017,05,24,04,04,7.10
2017,05,24,04,05,7.10
2017,05,24,04,06,7.10
2017,05,24,04,07,7.10
2017,05,24,04,08,7.10
2017,05,24,04,09,7.10
2017,05,24,04,10,7.20
2017,05,24,04,11,7.20
2017,05,24,04,12,7.20
2017,05,24,04,13,7.20
2017,05,24,04,14,7.20
2017,05,24,04,15,7.20
2017,05,24,04,16,7.20
2017,05,24,04,17,7.20
2017,05,24,04,18,7.20
2017,05,24,04,19,7.20
2017,05,24,04,20,7.30
2017,05,24,04,21,7.30
2017,05,24,04,22,7.30
2017,05,24,04,23,7.30
2017,05,24,04,24,7.30
2017,05,24,04,25,7.30
2017,05,24,04,26,7.30
2017,05,24,04,27,7.30
2017,05,24,04,28,7.30
2017,05,24,04,29,7.30
2017,05,24,04,30,7.30
2017,05,24,04,31,7.30
2017,05,24,04,32,7.30
2017,05,24,04,33,7.30
2017,05,24,04,34,7.20
2017,05,24,04,35,7.20
2017,05,24,04,36,7.20
2017,05,24,04,37,7.20
2017,05,24,04,38,7.20
2017,05,24,04,39,7.20
2017,05,24,04,40,7.20
2017,05,24,04,41,7.20
2017,05,24,04,42,7.20
2017,05,24,04,43,7.20
2017,05,24,04,44,7.20
2017,05,24,04,45,7.20
2017,05,24,04,46,7.20
2017,05,24,04,47,7.20
2017,05,24,04,48,7.20
2017,05,24,04,49,7.20
2017,05,24,04,50,7.20
2017,05,24,04,51,7.20
2017,05,24,04,52,7.20
2017,05,24,04,53,7.20
2017,05,24,04,54,7.20
2017,05,24,04,55,7.20
2017,05,24,04,56,7.20
2017,05,24,04,57,7.20
2017,05,24,04,58,7.20
2017,05,24,04,59,7.20
2017,05,24,05,00,7.10
2017,05,24,05,01,7.10
2017,05,24,05,02,7.10
2017,05,24,05,03,7.10
2017,05,24,05,04,7.00
2017,05,24,05,05,7.00
2017,05,24,05,06,7.00
2017,05,24,05,07,7.00
2017,05,24,05,08,6.90
2017,05,24,05,09,6.90
2017,05,24,05,10,6.90
2017,05,24,05,11,6.90
2017,05,24,05,12,6.90
2017,05,24,05,13,6.80
2017,05,24,05,14,6.80
2017,05,24,05,15,6.80
2017,05,24,05,16,6.80
2017,05,24,05,17,6.80
2017,05,24,05,18,6.80
2017,05,24,05,19,6.80
2017,05,24,05,20,6.80
2017,05,24,05,21,6.80
2017,05,24,05,22,6.80
2017,05,24,05,23,6.80
2017,05,24,05,24,6.80
2017,05,24,05,25,6.80
2017,05,24,05,26,6.80
2017,05,24,05,27,6.80
2017,05,24,05,28,6.70
2017,05,24,05,29,6.70
2017,05,24,05,30,6.70
2017,05,24,05,31,6.70
2017,05,24,05,32,6.70
2017,05,24,05,33,6.70
2017,05,24,05,34,6.70
2017,05,24,05,35,6.70
2017,05,24,05,36,6.70
2017,05,24,05,37,6.70
2017,05,24,05,38,6.70
2017,05,24,05,39,6.70
2017,05,24,05,40,6.70
2017,05,24,05,41,6.70
2017,05,24,05,42,6.70
2017,05,24,05,43,6.60
2017,05,24,05,44,6.60
2017,05,24,05,45,6.60
2017,05,24,05,46,6.60
2017,05,24,05,47,6.60
2017,05,24,05,48,6.60
2017,05,24,05,49,6.60
2017,05,24,05,50,6.60
2017,05,24,05,51,6.70
2017,05,24,05,52,6.70
2017,05,24,05,53,6.70
2017,05,24,05,54,6.70
2017,05,24,05,55,6.70
2017,05,24,05,56,6.70
2017,05,24,05,57,6.70
2017,05,24,05,58,6.70
2017,05,24,05,59,6.70
2017,05,24,06,00,6.80
2017,05,24,06,01,6.80
2017,05,24,06,02,6.80
2017,05,24,06,03,6.80
2017,05,24,06,04,6.80
2017,05,24,06,05,6.90
2017,05,24,06,06,6.90
2017,05,24,06,07,6.90
2017,05,24,06,08,6.90
2017,05,24,06,09,6.90
2017,05,24,06,10,6.90
2017,05,24,06,11,6.90
2017,05,24,06,12,6.90
2017,05,24,06,13,6.90
2017,05,24,06,14,6.90
2017,05,24,06,15,7.00
2017,05,24,06,16,6.90
2017,05,24,06,17,7.00
2017,05,24,06,18,6.90
2017,05,24,06,19,6.90
2017,05,24,06,20,6.90
2017,05,24,06,21,6.90
2017,05,24,06,22,6.90
2017,05,24,06,23,6.90
2017,05,24,06,24,6.90
2017,05,24,06,25,6.90
2017,05,24,06,26,6.90
2017,05,24,06,27,6.90
2017,05,24,06,28,6.90
2017,05,24,06,29,6.90
2017,05,24,06,30,7.00
2017,05,24,06,31,7.00
2017,05,24,06,32,7.10
2017,05,24,06,33,7.20
2017,05,24,06,34,7.20
2017,05,24,06,35,7.20
2017,05,24,06,36,7.20
2017,05,24,06,37,7.20
2017,05,24,06,38,7.20
2017,05,24,06,39,7.20
2017,05,24,06,40,7.20
2017,05,24,06,41,7.20
2017,05,24,06,42,7.20
2017,05,24,06,43,7.20
2017,05,24,06,44,7.20
2017,05,24,06,45,7.20
2017,05,24,06,46,7.20
2017,05,24,06,47,7.20
2017,05,24,06,48,7.20
2017,05,24,06,49,7.20
2017,05,24,06,50,7.20
2017,05,24,06,51,7.20
2017,05,24,06,52,7.20
2017,05,24,06,53,7.20
2017,05,24,06,54,7.20
2017,05,24,06,55,7.20
2017,05,24,06,56,7.10
2017,05,24,06,57,7.10
2017,05,24,06,58,7.10
2017,05,24,06,59,7.10
2017,05,24,07,00,7.10
2017,05,24,07,01,7.20
2017,05,24,07,02,7.20
2017,05,24,07,03,7.20
2017,05,24,07,04,7.20
2017,05,24,07,05,7.30
2017,05,24,07,06,7.30
2017,05,24,07,07,7.40
2017,05,24,07,08,7.50
2017,05,24,07,09,7.50
2017,05,24,07,10,7.60
2017,05,24,07,11,7.70
2017,05,24,07,12,7.80
2017,05,24,07,13,7.90
2017,05,24,07,14,8.00
2017,05,24,07,15,8.00
2017,05,24,07,16,8.10
2017,05,24,07,17,8.20
2017,05,24,07,18,8.30
2017,05,24,07,19,8.30
2017,05,24,07,20,8.40
2017,05,24,07,21,8.40
2017,05,24,07,22,8.50
2017,05,24,07,23,8.50
2017,05,24,07,24,8.50
2017,05,24,07,25,8.60
2017,05,24,07,26,8.60
2017,05,24,07,27,8.60
2017,05,24,07,28,8.60
2017,05,24,07,29,8.60
2017,05,24,07,30,8.60
2017,05,24,07,31,8.60
2017,05,24,07,32,8.70
2017,05,24,07,33,8.70
2017,05,24,07,34,8.70
2017,05,24,07,35,8.70
2017,05,24,07,36,8.70
2017,05,24,07,37,8.70
2017,05,24,07,38,8.80
2017,05,24,07,39,8.80
2017,05,24,07,40,8.80
2017,05,24,07,41,8.80
2017,05,24,07,42,8.80
2017,05,24,07,43,8.80
2017,05,24,07,44,8.90
2017,05,24,07,45,8.90
2017,05,24,07,46,8.90
2017,05,24,07,47,9.00
2017,05,24,07,48,9.00
2017,05,24,07,49,9.10
2017,05,24,07,50,9.10
2017,05,24,07,51,9.10
2017,05,24,07,52,9.10
2017,05,24,07,53,9.10
2017,05,24,07,54,9.10
2017,05,24,07,55,9.10
2017,05,24,07,56,9.10
2017,05,24,07,57,9.10
2017,05,24,07,58,9.10
2017,05,24,07,59,9.10
2017,05,24,08,00,9.10
2017,05,24,08,01,9.10
2017,05,24,08,02,9.10
2017,05,24,08,03,9.10
2017,05,24,08,04,9.10
2017,05,24,08,05,9.10
2017,05,24,08,06,9.10
2017,05,24,08,07,9.10
2017,05,24,08,08,9.10
2017,05,24,08,09,9.10
2017,05,24,08,10,9.10
2017,05,24,08,11,9.10
2017,05,24,08,12,9.20
2017,05,24,08,13,9.20
2017,05,24,08,14,9.30
2017,05,24,08,15,9.30
2017,05,24,08,16,9.30
2017,05,24,08,17,9.40
2017,05,24,08,18,9.40
2017,05,24,08,19,9.40
2017,05,24,08,20,9.50
2017,05,24,08,21,9.50
2017,05,24,08,22,9.60
2017,05,24,08,23,9.60
2017,05,24,08,24,9.70
2017,05,24,08,25,9.70
2017,05,24,08,26,9.70
2017,05,24,08,27,9.70
2017,05,24,08,28,9.80
2017,05,24,08,29,9.80
2017,05,24,08,30,9.80
2017,05,24,08,31,9.90
2017,05,24,08,32,9.90
2017,05,24,08,33,10.00
2017,05,24,08,34,10.10
2017,05,24,08,35,10.10
2017,05,24,08,36,10.20
2017,05,24,08,37,10.30
2017,05,24,08,38,10.30
2017,05,24,08,39,10.40
2017,05,24,08,40,10.50
2017,05,24,08,41,10.50
2017,05,24,08,42,10.50
2017,05,24,08,43,10.50
2017,05,24,08,44,10.50
2017,05,24,08,45,10.50
2017,05,24,08,46,10.50
2017,05,24,08,47,10.50
2017,05,24,08,48,10.50
2017,05,24,08,49,10.50
2017,05,24,08,50,10.50
2017,05,24,08,51,10.60
2017,05,24,08,52,10.60
2017,05,24,08,53,10.60
2017,05,24,08,54,10.60
2017,05,24,08,55,10.60
2017,05,24,08,56,10.60
2017,05,24,08,57,10.60
2017,05,24,08,58,10.60
2017,05,24,08,59,10.70
2017,05,24,09,00,10.70
2017,05,24,09,01,10.70
2017,05,24,09,02,10.70
2017,05,24,09,03,10.80
2017,05,24,09,04,10.80
2017,05,24,09,05,10.80
2017,05,24,09,06,10.90
2017,05,24,09,07,10.90
2017,05,24,09,08,10.90
2017,05,24,09,09,10.90
2017,05,24,09,10,11.00
2017,05,24,09,11,11.00
2017,05,24,09,12,11.10
2017,05,24,09,13,11.10
2017,05,24,09,14,11.10
2017,05,24,09,15,11.10
2017,05,24,09,16,11.10
2017,05,24,09,17,11.10
2017,05,24,09,18,11.10
2017,05,24,09,19,11.10
2017,05,24,09,20,11.10
2017,05,24,09,21,11.10
2017,05,24,09,22,11.10
2017,05,24,09,23,11.10
2017,05,24,09,24,11.20
2017,05,24,09,25,11.20
2017,05,24,09,26,11.20
2017,05,24,09,27,11.30
2017,05,24,09,28,11.30
2017,05,24,09,29,11.30
2017,05,24,09,30,11.30
2017,05,24,09,31,11.30
2017,05,24,09,32,11.30
2017,05,24,09,33,11.30
2017,05,24,09,34,11.30
2017,05,24,09,35,11.40
2017,05,24,09,36,11.40
2017,05,24,09,37,11.50
2017,05,24,09,38,11.60
2017,05,24,09,39,11.60
2017,05,24,09,40,11.70
2017,05,24,09,41,11.80
2017,05,24,09,42,11.80
2017,05,24,09,43,11.80
2017,05,24,09,44,11.90
2017,05,24,09,45,11.90
2017,05,24,09,46,12.00
2017,05,24,09,47,12.00
2017,05,24,09,48,12.00
2017,05,24,09,49,12.10
2017,05,24,09,50,12.10
2017,05,24,09,51,12.20
2017,05,24,09,52,12.20
2017,05,24,09,53,12.20
2017,05,24,09,54,12.30
2017,05,24,09,55,12.30
2017,05,24,09,56,12.30
2017,05,24,09,57,12.30
2017,05,24,09,58,12.40
2017,05,24,09,59,12.40
2017,05,24,10,00,12.40
2017,05,24,10,01,12.40
2017,05,24,10,02,12.50
2017,05,24,10,03,12.50
2017,05,24,10,04,12.60
2017,05,24,10,05,12.60
2017,05,24,10,06,12.60
2017,05,24,10,07,12.60
2017,05,24,10,08,12.60
2017,05,24,10,09,12.70
2017,05,24,10,10,12.70
2017,05,24,10,11,12.80
2017,05,24,10,12,12.80
2017,05,24,10,13,12.80
2017,05,24,10,14,12.90
2017,05,24,10,15,12.90
2017,05,24,10,16,12.90
2017,05,24,10,17,13.00
2017,05,24,10,18,13.00
2017,05,24,10,19,13.00
2017,05,24,10,20,13.10
2017,05,24,10,21,13.10
2017,05,24,10,22,13.20
2017,05,24,10,23,13.20
2017,05,24,10,24,13.20
2017,05,24,10,25,13.30
2017,05,24,10,26,13.30
2017,05,24,10,27,13.40
2017,05,24,10,28,13.40
2017,05,24,10,29,13.40
2017,05,24,10,30,13.40
2017,05,24,10,31,13.40
2017,05,24,10,32,13.40
2017,05,24,10,33,13.50
2017,05,24,10,34,13.60
2017,05,24,10,35,13.80
2017,05,24,10,36,13.90
2017,05,24,10,37,14.00
2017,05,24,10,38,14.00
2017,05,24,10,39,14.10
2017,05,24,10,40,14.10
2017,05,24,10,41,14.10
2017,05,24,10,42,14.10
2017,05,24,10,43,14.10
2017,05,24,10,44,14.10
2017,05,24,10,45,14.10
2017,05,24,10,46,14.10
2017,05,24,10,47,14.10
2017,05,24,10,48,14.10
2017,05,24,10,49,14.10
2017,05,24,10,50,14.10
2017,05,24,10,51,14.10
2017,05,24,10,52,14.10
2017,05,24,10,53,14.10
2017,05,24,10,54,14.20
2017,05,24,10,55,14.20
2017,05,24,10,56,14.20
2017,05,24,10,57,14.30
2017,05,24,10,58,14.30
2017,05,24,10,59,14.30
2017,05,24,11,00,14.30
2017,05,24,11,01,14.30
2017,05,24,11,02,14.30
2017,05,24,11,03,14.30
2017,05,24,11,04,14.30
2017,05,24,11,05,14.30
2017,05,24,11,06,14.30
2017,05,24,11,07,14.40
2017,05,24,11,08,14.40
2017,05,24,11,09,14.40
2017,05,24,11,10,14.40
2017,05,24,11,11,14.30
2017,05,24,11,12,14.30
2017,05,24,11,13,14.20
2017,05,24,11,14,14.20
2017,05,24,11,15,14.10
2017,05,24,11,16,14.10
2017,05,24,11,17,14.00
2017,05,24,11,18,14.00
2017,05,24,11,19,13.90
2017,05,24,11,20,13.90
2017,05,24,11,21,13.90
2017,05,24,11,22,13.90
2017,05,24,11,23,13.90
2017,05,24,11,24,13.80
2017,05,24,11,25,13.80
2017,05,24,11,26,13.80
2017,05,24,11,27,13.70
2017,05,24,11,28,13.70
2017,05,24,11,29,13.70
2017,05,24,11,30,13.70
2017,05,24,11,31,13.70
2017,05,24,11,32,13.70
2017,05,24,11,33,13.70
2017,05,24,11,34,13.70
2017,05,24,11,35,13.70
2017,05,24,11,36,13.70
2017,05,24,11,37,13.70
2017,05,24,11,38,13.70
2017,05,24,11,39,13.80
2017,05,24,11,40,13.80
2017,05,24,11,41,13.80
2017,05,24,11,42,13.80
2017,05,24,11,43,13.80
2017,05,24,11,44,13.90
2017,05,24,11,45,13.90
2017,05,24,11,46,13.80
2017,05,24,11,47,13.80
2017,05,24,11,48,13.80
2017,05,24,11,49,13.80
2017,05,24,11,50,13.70
2017,05,24,11,51,13.70
2017,05,24,11,52,13.70
2017,05,24,11,53,13.80
2017,05,24,11,54,13.80
2017,05,24,11,55,13.80
2017,05,24,11,56,13.90
2017,05,24,11,57,13.90
2017,05,24,11,58,13.90
2017,05,24,11,59,13.90
2017,05,24,12,00,13.90
2017,05,24,12,01,13.90
2017,05,24,12,02,13.90
2017,05,24,12,03,14.00
2017,05,24,12,04,14.00
2017,05,24,12,05,14.10
2017,05,24,12,06,14.10
2017,05,24,12,07,14.10
2017,05,24,12,08,14.10
2017,05,24,12,09,14.10
2017,05,24,12,10,14.10
2017,05,24,12,11,14.10
2017,05,24,12,12,14.00
2017,05,24,12,13,14.00
2017,05,24,12,14,13.90
2017,05,24,12,15,13.90
2017,05,24,12,16,13.90
2017,05,24,12,17,13.80
2017,05,24,12,18,13.80
2017,05,24,12,19,13.80
2017,05,24,12,20,13.80
2017,05,24,12,21,13.80
2017,05,24,12,22,13.80
2017,05,24,12,23,13.80
2017,05,24,12,24,13.70
2017,05,24,12,25,13.70
2017,05,24,12,26,13.60
2017,05,24,12,27,13.60
2017,05,24,12,28,13.60
2017,05,24,12,29,13.60
2017,05,24,12,30,13.60
2017,05,24,12,31,13.60
2017,05,24,12,32,13.70
2017,05,24,12,33,13.70
2017,05,24,12,34,13.80
2017,05,24,12,35,13.80
2017,05,24,12,36,13.80
2017,05,24,12,37,13.80
2017,05,24,12,38,13.80
2017,05,24,12,39,13.80
2017,05,24,12,40,13.70
2017,05,24,12,41,13.80
2017,05,24,12,42,13.80
2017,05,24,12,43,13.90
2017,05,24,12,44,13.90
2017,05,24,12,45,13.90
2017,05,24,12,46,13.90
2017,05,24,12,47,14.00
2017,05,24,12,48,14.00
2017,05,24,12,49,13.90
2017,05,24,12,50,13.90
2017,05,24,12,51,13.90
2017,05,24,12,52,13.90
2017,05,24,12,53,13.80
2017,05,24,12,54,13.80
2017,05,24,12,55,13.80
2017,05,24,12,56,13.80
2017,05,24,12,57,13.80
2017,05,24,12,58,13.80
2017,05,24,12,59,13.80
2017,05,24,13,00,13.80
2017,05,24,13,01,13.80
2017,05,24,13,02,13.80
2017,05,24,13,03,13.80
2017,05,24,13,04,13.80
2017,05,24,13,05,13.70
2017,05,24,13,06,13.70
2017,05,24,13,07,13.70
2017,05,24,13,08,13.70
2017,05,24,13,09,13.70
2017,05,24,13,10,13.70
2017,05,24,13,11,13.70
2017,05,24,13,12,13.70
2017,05,24,13,13,13.60
2017,05,24,13,14,13.60
2017,05,24,13,15,13.60
2017,05,24,13,16,13.50
2017,05,24,13,17,13.50
2017,05,24,13,18,13.40
2017,05,24,13,19,13.40
2017,05,24,13,20,13.40
2017,05,24,13,21,13.30
2017,05,24,13,22,13.30
2017,05,24,13,23,13.30
2017,05,24,13,24,13.20
2017,05,24,13,25,13.20
2017,05,24,13,26,13.30
2017,05,24,13,27,13.30
2017,05,24,13,28,13.40
2017,05,24,13,29,13.50
2017,05,24,13,30,13.60
2017,05,24,13,31,13.70
2017,05,24,13,32,13.80
2017,05,24,13,33,13.80
2017,05,24,13,34,13.80
2017,05,24,13,35,13.90
2017,05,24,13,36,13.90
2017,05,24,13,37,14.00
2017,05,24,13,38,14.00
2017,05,24,13,39,14.00
2017,05,24,13,40,14.00
2017,05,24,13,41,14.00
2017,05,24,13,42,13.90
2017,05,24,13,43,13.90
2017,05,24,13,44,13.90
2017,05,24,13,45,13.90
2017,05,24,13,46,13.90
2017,05,24,13,47,13.90
2017,05,24,13,48,13.80
2017,05,24,13,49,13.80
2017,05,24,13,50,13.80
2017,05,24,13,51,13.90
2017,05,24,13,52,13.90
2017,05,24,13,53,14.00
2017,05,24,13,54,14.00
2017,05,24,13,55,14.10
2017,05,24,13,56,14.20
2017,05,24,13,57,14.30
2017,05,24,13,58,14.30
2017,05,24,13,59,14.40
2017,05,24,14,00,14.50
2017,05,24,14,01,14.60
2017,05,24,14,02,14.70
2017,05,24,14,03,14.80
2017,05,24,14,04,14.90
2017,05,24,14,05,15.00
2017,05,24,14,06,15.10
2017,05,24,14,07,15.20
2017,05,24,14,08,15.30
2017,05,24,14,09,15.30
2017,05,24,14,10,15.30
2017,05,24,14,11,15.30
2017,05,24,14,12,15.40
2017,05,24,14,13,15.40
2017,05,24,14,14,15.40
2017,05,24,14,15,15.40
2017,05,24,14,16,15.50
2017,05,24,14,17,15.60
2017,05,24,14,18,15.60
2017,05,24,14,19,15.70
2017,05,24,14,20,15.70
2017,05,24,14,21,15.80
2017,05,24,14,22,15.80
2017,05,24,14,23,15.90
2017,05,24,14,24,16.00
2017,05,24,14,25,16.10
2017,05,24,14,26,16.20
2017,05,24,14,27,16.30
2017,05,24,14,28,16.40
2017,05,24,14,29,16.50
2017,05,24,14,30,16.70
2017,05,24,14,31,16.80
2017,05,24,14,32,16.80
2017,05,24,14,33,16.90
2017,05,24,14,34,16.90
2017,05,24,14,35,17.00
2017,05,24,14,36,17.00
2017,05,24,14,37,17.00
2017,05,24,14,38,17.00
2017,05,24,14,39,17.00
2017,05,24,14,40,17.00
2017,05,24,14,41,17.10
2017,05,24,14,42,17.10
2017,05,24,14,43,17.20
2017,05,24,14,44,17.20
2017,05,24,14,45,17.30
2017,05,24,14,46,17.30
2017,05,24,14,47,17.30
2017,05,24,14,48,17.20
2017,05,24,14,49,17.10
2017,05,24,14,50,17.00
2017,05,24,14,51,16.90
2017,05,24,14,52,16.80
2017,05,24,14,53,16.70
2017,05,24,14,54,16.60
2017,05,24,14,55,16.50
2017,05,24,14,56,16.50
2017,05,24,14,57,16.40
2017,05,24,14,58,16.30
2017,05,24,14,59,16.20
2017,05,24,15,00,16.20
2017,05,24,15,01,16.20
2017,05,24,15,02,16.10
2017,05,24,15,03,16.20
2017,05,24,15,04,16.20
2017,05,24,15,05,16.20
2017,05,24,15,06,16.20
2017,05,24,15,07,16.30
2017,05,24,15,08,16.30
2017,05,24,15,09,16.30
2017,05,24,15,10,16.30
2017,05,24,15,11,16.20
2017,05,24,15,12,16.20
2017,05,24,15,13,16.10
2017,05,24,15,14,16.00
2017,05,24,15,15,15.90
2017,05,24,15,16,15.90
2017,05,24,15,17,15.80
2017,05,24,15,18,15.80
2017,05,24,15,19,15.80
2017,05,24,15,20,15.70
2017,05,24,15,21,15.70
2017,05,24,15,22,15.70
2017,05,24,15,23,15.70
2017,05,24,15,24,15.70
2017,05,24,15,25,15.70
2017,05,24,15,26,15.80
2017,05,24,15,27,15.80
2017,05,24,15,28,15.90
2017,05,24,15,29,16.00
2017,05,24,15,30,16.10
2017,05,24,15,31,16.20
2017,05,24,15,32,16.20
2017,05,24,15,33,16.30
2017,05,24,15,34,16.30
2017,05,24,15,35,16.30
2017,05,24,15,36,16.20
2017,05,24,15,37,16.20
2017,05,24,15,38,16.10
2017,05,24,15,39,16.00
2017,05,24,15,40,15.90
2017,05,24,15,41,15.90
2017,05,24,15,42,15.80
2017,05,24,15,43,15.80
2017,05,24,15,44,15.70
2017,05,24,15,45,15.70
2017,05,24,15,46,15.70
2017,05,24,15,47,15.70
2017,05,24,15,48,15.70
2017,05,24,15,49,15.70
2017,05,24,15,50,15.70
2017,05,24,15,51,15.70
2017,05,24,15,52,15.80
2017,05,24,15,53,15.80
2017,05,24,15,54,15.90
2017,05,24,15,55,16.00
2017,05,24,15,56,16.00
2017,05,24,15,57,16.20
2017,05,24,15,58,16.30
2017,05,24,15,59,16.50
2017,05,24,16,00,16.60
2017,05,24,16,01,16.70
2017,05,24,16,02,16.80
2017,05,24,16,03,16.90
2017,05,24,16,04,17.00
2017,05,24,16,05,17.10
2017,05,24,16,06,17.10
2017,05,24,16,07,17.10
2017,05,24,16,08,17.10
2017,05,24,16,09,17.20
2017,05,24,16,10,17.20
2017,05,24,16,11,17.20
2017,05,24,16,12,17.30
2017,05,24,16,13,17.30
2017,05,24,16,14,17.30
2017,05,24,16,15,17.30
2017,05,24,16,16,17.40
2017,05,24,16,17,17.50
2017,05,24,16,18,17.50
2017,05,24,16,19,17.60
2017,05,24,16,20,17.60
2017,05,24,16,21,17.60
2017,05,24,16,22,17.60
2017,05,24,16,23,17.60
2017,05,24,16,24,17.60
2017,05,24,16,25,17.60
2017,05,24,16,26,17.60
2017,05,24,16,27,17.70
2017,05,24,16,28,17.70
2017,05,24,16,29,17.60
2017,05,24,16,30,17.60
2017,05,24,16,31,17.60
2017,05,24,16,32,17.60
2017,05,24,16,33,17.50
2017,05,24,16,34,17.40
2017,05,24,16,35,17.40
2017,05,24,16,36,17.30
2017,05,24,16,37,17.20
2017,05,24,16,38,17.20
2017,05,24,16,39,17.20
2017,05,24,16,40,17.10
2017,05,24,16,41,17.10
2017,05,24,16,42,17.10
2017,05,24,16,43,17.10
2017,05,24,16,44,17.10
2017,05,24,16,45,17.00
2017,05,24,16,46,17.00
2017,05,24,16,47,17.00
2017,05,24,16,48,16.90
2017,05,24,16,49,16.90
2017,05,24,16,50,16.90
2017,05,24,16,51,16.80
2017,05,24,16,52,16.80
2017,05,24,16,53,16.80
2017,05,24,16,54,16.80
2017,05,24,16,55,16.80
2017,05,24,16,56,16.90
2017,05,24,16,57,16.90
2017,05,24,16,58,17.00
2017,05,24,16,59,17.00
2017,05,24,17,00,17.00
2017,05,24,17,01,17.10
2017,05,24,17,02,17.10
2017,05,24,17,03,17.10
2017,05,24,17,04,17.10
2017,05,24,17,05,17.10
2017,05,24,17,06,17.20
2017,05,24,17,07,17.20
2017,05,24,17,08,17.20
2017,05,24,17,09,17.20
2017,05,24,17,10,17.20
2017,05,24,17,11,17.20
2017,05,24,17,12,17.20
2017,05,24,17,13,17.10
2017,05,24,17,14,17.10
2017,05,24,17,15,17.00
2017,05,24,17,16,17.00
2017,05,24,17,17,17.00
2017,05,24,17,18,17.00
2017,05,24,17,19,16.90
2017,05,24,17,20,16.90
2017,05,24,17,21,16.90
2017,05,24,17,22,16.90
2017,05,24,17,23,16.90
2017,05,24,17,24,16.90
2017,05,24,17,25,16.90
2017,05,24,17,26,16.90
2017,05,24,17,27,16.90
2017,05,24,17,28,16.90
2017,05,24,17,29,16.90
2017,05,24,17,30,16.90
2017,05,24,17,31,16.80
2017,05,24,17,32,16.80
2017,05,24,17,33,16.70
2017,05,24,17,34,16.70
2017,05,24,17,35,16.60
2017,05,24,17,36,16.60
2017,05,24,17,37,16.50
2017,05,24,17,38,16.40
2017,05,24,17,39,16.40
2017,05,24,17,40,16.30
2017,05,24,17,41,16.30